KLM987 LSZH-LIMC

Flight info

Callsign KLM987
Flight time 0h 57m
Altitude 22000
Route VEBIT4N/32 VEBIT T53 OBEDU/N0423F240 T53 GERSA/N0418F230 DCT SOSON DCT DEGAD DCT BASGO Z424 AKASU/N0395F190 Z424 RIXUV
Aircraft B738/M-SDE2E3FGHIRWXY/LB1

Departure

Time 2026-05-05 20:17
Airport Zürich Airport (LSZH)

Arrival

Time 2026-05-05 21:14
Airport Milan Malpensa International Airport (LIMC)
Time Latitude Longitude Altitude Speed Heading
2026-05-05 19:39 47.45436 8.55691 1396 ft 0 kts 186°
2026-05-05 20:01 47.45435 8.55691 1396 ft 0 kts 186°
2026-05-05 20:01 47.45440 8.55692 1396 ft 1 kts 186°
2026-05-05 20:02 47.45456 8.55695 1396 ft 3 kts 186°
2026-05-05 20:02 47.45481 8.55699 1396 ft 3 kts 180°
2026-05-05 20:02 47.45502 8.55695 1396 ft 3 kts 152°
2026-05-05 20:02 47.45513 8.55682 1396 ft 1 kts 105°
2026-05-05 20:03 47.45514 8.55676 1396 ft 0 kts 96°
2026-05-05 20:05 47.45513 8.55684 1396 ft 4 kts 96°
2026-05-05 20:05 47.45508 8.55760 1396 ft 9 kts 101°
2026-05-05 20:05 47.45499 8.55877 1396 ft 13 kts 95°
2026-05-05 20:06 47.45490 8.56001 1396 ft 10 kts 95°
2026-05-05 20:06 47.45483 8.56107 1396 ft 11 kts 96°
2026-05-05 20:06 47.45480 8.56206 1396 ft 8 kts 81°
2026-05-05 20:06 47.45526 8.56250 1396 ft 9 kts
2026-05-05 20:07 47.45570 8.56257 1396 ft 0 kts
2026-05-05 20:11 47.45576 8.56257 1396 ft 3 kts
2026-05-05 20:11 47.45629 8.56265 1395 ft 13 kts
2026-05-05 20:11 47.45739 8.56283 1398 ft 18 kts
2026-05-05 20:11 47.45843 8.56299 1400 ft 11 kts
2026-05-05 20:12 47.45854 8.56301 1401 ft 0 kts
2026-05-05 20:12 47.45858 8.56301 1401 ft 2 kts
2026-05-05 20:13 47.45898 8.56306 1402 ft 9 kts
2026-05-05 20:13 47.45991 8.56320 1402 ft 17 kts
2026-05-05 20:13 47.46029 8.56326 1401 ft 0 kts
2026-05-05 20:14 47.46036 8.56327 1401 ft 5 kts
2026-05-05 20:14 47.46096 8.56339 1399 ft 11 kts
2026-05-05 20:14 47.46155 8.56389 1397 ft 8 kts 21°
2026-05-05 20:14 47.46188 8.56365 1396 ft 0 kts 318°
2026-05-05 20:16 47.46315 8.56193 1394 ft 68 kts 317°
2026-05-05 20:16 47.46886 8.55413 1395 ft 152 kts 316°
2026-05-05 20:16 47.47828 8.54146 1711 ft 197 kts 316°
2026-05-05 20:17 47.48752 8.52821 3102 ft 182 kts 314°
2026-05-05 20:17 47.49673 8.51550 4280 ft 187 kts 320°
2026-05-05 20:17 47.50761 8.50293 5014 ft 207 kts 323°
2026-05-05 20:17 47.52058 8.49088 5081 ft 229 kts 327°
2026-05-05 20:18 47.53227 8.47472 5078 ft 233 kts 300°
2026-05-05 20:18 47.53645 8.45218 5088 ft 229 kts 267°
2026-05-05 20:18 47.53240 8.42965 5104 ft 229 kts 244°
2026-05-05 20:18 47.52557 8.40882 5464 ft 222 kts 243°
2026-05-05 20:19 47.51573 8.39115 5943 ft 227 kts 213°
2026-05-05 20:19 47.50132 8.38155 6473 ft 230 kts 195°
2026-05-05 20:19 47.48558 8.37630 6983 ft 234 kts 192°
2026-05-05 20:19 47.46956 8.37153 7488 ft 236 kts 192°
2026-05-05 20:20 47.45335 8.36656 7988 ft 239 kts 192°
2026-05-05 20:20 47.43701 8.36139 8490 ft 241 kts 192°
2026-05-05 20:20 47.42058 8.35610 8989 ft 242 kts 193°
2026-05-05 20:20 47.40404 8.35071 9468 ft 245 kts 194°
2026-05-05 20:21 47.38896 8.33929 9920 ft 249 kts 226°
2026-05-05 20:21 47.37896 8.31815 10432 ft 256 kts 241°
2026-05-05 20:21 47.37058 8.29442 10950 ft 265 kts 243°
2026-05-05 20:21 47.36210 8.26979 11474 ft 274 kts 243°
2026-05-05 20:22 47.35326 8.24430 11996 ft 283 kts 243°
2026-05-05 20:22 47.34412 8.21814 12513 ft 291 kts 242°
2026-05-05 20:22 47.33462 8.19129 13033 ft 299 kts 242°
2026-05-05 20:22 47.32482 8.16374 13545 ft 307 kts 242°
2026-05-05 20:23 47.31469 8.13610 14046 ft 314 kts 237°
2026-05-05 20:23 47.29988 8.11218 14550 ft 321 kts 218°
2026-05-05 20:23 47.28077 8.09385 15074 ft 327 kts 207°
2026-05-05 20:23 47.25978 8.08144 15573 ft 333 kts 195°
2026-05-05 20:24 47.23682 8.07588 16076 ft 338 kts 182°
2026-05-05 20:24 47.21339 8.07918 16572 ft 341 kts 166°
2026-05-05 20:24 47.19126 8.09186 17073 ft 344 kts 150°
2026-05-05 20:24 47.17221 8.11294 17568 ft 344 kts 135°
2026-05-05 20:25 47.15755 8.14063 18066 ft 344 kts 120°
2026-05-05 20:25 47.14898 8.17330 18568 ft 343 kts 107°
2026-05-05 20:25 47.14070 8.20604 19047 ft 344 kts 114°
2026-05-05 20:25 47.13040 8.23846 19208 ft 357 kts 116°
2026-05-05 20:26 47.11954 8.27169 19525 ft 363 kts 116°
2026-05-05 20:26 47.10876 8.30531 19902 ft 365 kts 115°
2026-05-05 20:26 47.09813 8.33920 20274 ft 366 kts 115°
2026-05-05 20:26 47.08759 8.37338 20649 ft 369 kts 114°
2026-05-05 20:27 47.07706 8.40781 21026 ft 371 kts 114°
2026-05-05 20:27 47.06645 8.44249 21401 ft 373 kts 114°
2026-05-05 20:27 47.05575 8.47729 21777 ft 375 kts 116°
2026-05-05 20:27 47.04095 8.50857 22115 ft 376 kts 137°
2026-05-05 20:28 47.01931 8.52983 22513 ft 375 kts 156°
2026-05-05 20:28 46.99427 8.53982 22891 ft 375 kts 173°
2026-05-05 20:28 46.96833 8.54390 23278 ft 375 kts 175°
2026-05-05 20:28 46.94230 8.54725 23648 ft 375 kts 175°
2026-05-05 20:29 46.91630 8.55048 23985 ft 376 kts 175°
2026-05-05 20:29 46.88996 8.55386 23989 ft 384 kts 175°
2026-05-05 20:29 46.86316 8.55747 24006 ft 391 kts 175°
2026-05-05 20:29 46.83588 8.56126 24015 ft 397 kts 175°
2026-05-05 20:30 46.80815 8.56519 24014 ft 403 kts 174°
2026-05-05 20:30 46.78922 8.56790 24010 ft 406 kts 174°
2026-05-05 20:30 46.76130 8.57191 24014 ft 411 kts 174°
2026-05-05 20:30 46.73229 8.57608 24006 ft 416 kts 174°
2026-05-05 20:31 46.70334 8.58023 24006 ft 419 kts 174°
2026-05-05 20:31 46.67418 8.58440 24002 ft 422 kts 174°
2026-05-05 20:31 46.64524 8.58854 24005 ft 425 kts 174°
2026-05-05 20:31 46.61574 8.59275 24003 ft 428 kts 174°
2026-05-05 20:32 46.58605 8.59696 24004 ft 430 kts 175°
2026-05-05 20:32 46.55616 8.60116 24002 ft 432 kts 175°
2026-05-05 20:32 46.52621 8.60536 24003 ft 433 kts 175°
2026-05-05 20:32 46.49615 8.60957 23998 ft 435 kts 175°
2026-05-05 20:33 46.46595 8.61269 23993 ft 436 kts 181°
2026-05-05 20:33 46.43592 8.60718 24009 ft 436 kts 194°
2026-05-05 20:33 46.40724 8.59280 24002 ft 437 kts 205°
2026-05-05 20:33 46.38101 8.57062 24014 ft 437 kts 213°
2026-05-05 20:34 46.35551 8.54654 23999 ft 438 kts 213°
2026-05-05 20:34 46.32976 8.52277 24004 ft 439 kts 212°
2026-05-05 20:34 46.30367 8.49986 23996 ft 440 kts 207°
2026-05-05 20:34 46.27517 8.48394 24000 ft 440 kts 194°
2026-05-05 20:35 46.24507 8.47698 23992 ft 432 kts 183°
2026-05-05 20:35 46.21568 8.47883 24003 ft 414 kts 173°
2026-05-05 20:35 46.18768 8.48387 23986 ft 398 kts 173°
2026-05-05 20:35 46.16071 8.48843 23984 ft 382 kts 174°
2026-05-05 20:36 46.13479 8.49242 23982 ft 368 kts 174°
2026-05-05 20:36 46.10993 8.49745 23985 ft 354 kts 168°
2026-05-05 20:36 46.08685 8.50745 23993 ft 340 kts 160°
2026-05-05 20:36 46.06509 8.51927 23982 ft 328 kts 159°
2026-05-05 20:37 46.04415 8.53090 23987 ft 318 kts 159°
2026-05-05 20:37 46.02373 8.54217 23985 ft 313 kts 159°
2026-05-05 20:37 46.00316 8.55341 24014 ft 320 kts 160°
2026-05-05 20:37 45.98210 8.56483 24013 ft 327 kts 160°
2026-05-05 20:38 45.96079 8.57631 24010 ft 327 kts 160°
2026-05-05 20:38 45.93955 8.58772 23996 ft 325 kts 160°
2026-05-05 20:38 45.91841 8.59905 23992 ft 324 kts 160°
2026-05-05 20:38 45.89682 8.60733 23977 ft 321 kts 179°
2026-05-05 20:39 45.87480 8.60463 24013 ft 318 kts 191°
2026-05-05 20:39 45.85308 8.59829 23968 ft 320 kts 193°
2026-05-05 20:39 45.83097 8.59125 23573 ft 329 kts 193°
2026-05-05 20:39 45.80855 8.58433 23214 ft 331 kts 192°
2026-05-05 20:40 45.78602 8.57765 22839 ft 331 kts 192°
2026-05-05 20:40 45.76349 8.57112 22467 ft 330 kts 192°
2026-05-05 20:40 45.74098 8.56618 22275 ft 323 kts 179°
2026-05-05 20:40 45.71899 8.56934 22199 ft 313 kts 172°
2026-05-05 20:41 45.69766 8.57385 21963 ft 309 kts 172°
2026-05-05 20:41 45.67636 8.57842 21621 ft 309 kts 172°
2026-05-05 20:41 45.65513 8.58278 21294 ft 308 kts 172°
2026-05-05 20:41 45.63396 8.58692 21000 ft 306 kts 172°
2026-05-05 20:42 45.61293 8.59095 20712 ft 304 kts 172°
2026-05-05 20:42 45.59201 8.59493 20416 ft 302 kts 172°
2026-05-05 20:42 45.57114 8.59789 20099 ft 301 kts 183°
2026-05-05 20:42 45.55111 8.59064 19757 ft 299 kts 208°
2026-05-05 20:43 45.53513 8.57229 19459 ft 296 kts 232°
2026-05-05 20:43 45.52583 8.54649 19145 ft 294 kts 256°
2026-05-05 20:43 45.52468 8.51760 18818 ft 293 kts 279°
2026-05-05 20:43 45.53227 8.49142 18474 ft 293 kts 309°
2026-05-05 20:44 45.54826 8.47383 18166 ft 292 kts 335°
2026-05-05 20:44 45.56771 8.46625 17865 ft 291 kts 356°
2026-05-05 20:44 45.58768 8.46933 17536 ft 291 kts 19°
2026-05-05 20:44 45.60506 8.48365 17217 ft 289 kts 44°
2026-05-05 20:45 45.61950 8.53484 16607 ft 285 kts 94°
2026-05-05 20:45 45.61523 8.56217 16307 ft 282 kts 112°
2026-05-05 20:45 45.60735 8.58776 16031 ft 281 kts 115°
2026-05-05 20:46 45.59905 8.61297 15738 ft 280 kts 115°
2026-05-05 20:46 45.59078 8.63802 15458 ft 279 kts 115°
2026-05-05 20:46 45.58259 8.66301 15185 ft 277 kts 115°
2026-05-05 20:46 45.57451 8.68789 14912 ft 276 kts 115°
2026-05-05 20:47 45.56653 8.71263 14639 ft 274 kts 115°
2026-05-05 20:47 45.55860 8.73731 14367 ft 273 kts 115°
2026-05-05 20:47 45.55071 8.76187 14096 ft 271 kts 115°
2026-05-05 20:47 45.54285 8.78629 13825 ft 270 kts 116°
2026-05-05 20:48 45.53214 8.80799 13519 ft 268 kts 137°
2026-05-05 20:48 45.51619 8.82150 13207 ft 265 kts 169°
2026-05-05 20:48 45.49832 8.82015 12925 ft 262 kts 198°
2026-05-05 20:48 45.48212 8.80884 12654 ft 260 kts 216°
2026-05-05 20:49 45.46950 8.79060 12350 ft 260 kts 237°
2026-05-05 20:49 45.46242 8.76712 12068 ft 259 kts 258°
2026-05-05 20:49 45.46209 8.74173 11790 ft 258 kts 281°
2026-05-05 20:49 45.46834 8.71792 11519 ft 257 kts 300°
2026-05-05 20:50 45.47997 8.69879 11227 ft 257 kts 321°
2026-05-05 20:50 45.49432 8.68373 10981 ft 256 kts 323°
2026-05-05 20:50 45.50876 8.66898 10709 ft 255 kts 323°
2026-05-05 20:50 45.52317 8.65431 10447 ft 254 kts 323°
2026-05-05 20:51 45.53754 8.63971 10193 ft 253 kts 323°
2026-05-05 20:51 45.55183 8.62520 9937 ft 252 kts 323°
2026-05-05 20:51 45.56577 8.61028 9755 ft 250 kts 320°
2026-05-05 20:51 45.57930 8.59440 9725 ft 253 kts 318°
2026-05-05 20:52 45.59260 8.57772 9535 ft 258 kts 317°
2026-05-05 20:52 45.60581 8.56033 9285 ft 258 kts 316°
2026-05-05 20:52 45.61873 8.54281 9068 ft 254 kts 315°
2026-05-05 20:52 45.63091 8.52511 8996 ft 246 kts 304°
2026-05-05 20:53 45.63581 8.50260 9004 ft 238 kts 265°
2026-05-05 20:53 45.63386 8.47894 9012 ft 242 kts 264°
2026-05-05 20:53 45.63286 8.45465 9015 ft 246 kts 269°
2026-05-05 20:53 45.63701 8.43131 8991 ft 246 kts 305°
2026-05-05 20:54 45.65028 8.41661 8996 ft 246 kts 342°
2026-05-05 20:54 45.66707 8.41660 9000 ft 246 kts 20°
2026-05-05 20:54 45.68037 8.43123 9004 ft 245 kts 59°
2026-05-05 20:54 45.68461 8.45437 9009 ft 245 kts 97°
2026-05-05 20:55 45.67840 8.47666 9032 ft 244 kts 123°
2026-05-05 20:55 45.67015 8.49816 9005 ft 249 kts 119°
2026-05-05 20:55 45.65899 8.51702 9003 ft 250 kts 143°
2026-05-05 20:55 45.64477 8.53138 9005 ft 252 kts 145°
2026-05-05 20:56 45.63037 8.54573 8999 ft 251 kts 145°
2026-05-05 20:56 45.61508 8.55716 8955 ft 248 kts 163°
2026-05-05 20:56 45.59825 8.56360 8713 ft 252 kts 166°
2026-05-05 20:56 45.58131 8.56976 8460 ft 251 kts 166°
2026-05-05 20:57 45.56445 8.57602 8207 ft 249 kts 165°
2026-05-05 20:57 45.54775 8.58237 7956 ft 248 kts 165°
2026-05-05 20:57 45.53135 8.58872 7827 ft 241 kts 165°
2026-05-05 20:57 45.51528 8.59501 7598 ft 239 kts 165°
2026-05-05 20:58 45.49924 8.60134 7335 ft 239 kts 165°
2026-05-05 20:58 45.48330 8.60767 7087 ft 238 kts 165°
2026-05-05 20:58 45.46740 8.61399 6841 ft 236 kts 165°
2026-05-05 20:58 45.45158 8.62029 6594 ft 235 kts 165°
2026-05-05 20:59 45.43608 8.62647 6352 ft 234 kts 165°
2026-05-05 20:59 45.42039 8.63273 6116 ft 233 kts 165°
2026-05-05 20:59 45.40477 8.63897 6041 ft 233 kts 165°
2026-05-05 20:59 45.38914 8.64522 6006 ft 233 kts 165°
2026-05-05 21:00 45.37363 8.65141 6002 ft 231 kts 165°
2026-05-05 21:00 45.35813 8.65761 5994 ft 229 kts 165°
2026-05-05 21:00 45.34287 8.66311 5989 ft 224 kts 169°
2026-05-05 21:00 45.32763 8.66728 5994 ft 222 kts 169°
2026-05-05 21:01 45.31253 8.67131 5993 ft 220 kts 169°
2026-05-05 21:01 45.29749 8.67538 5997 ft 220 kts 169°
2026-05-05 21:01 45.28252 8.67946 6000 ft 219 kts 169°
2026-05-05 21:01 45.26761 8.68354 6001 ft 218 kts 169°
2026-05-05 21:02 45.25267 8.68762 6003 ft 218 kts 169°
2026-05-05 21:02 45.23754 8.69176 6005 ft 219 kts 169°
2026-05-05 21:02 45.22257 8.69586 6008 ft 220 kts 169°
2026-05-05 21:02 45.20754 8.69998 6010 ft 221 kts 169°
2026-05-05 21:03 45.19263 8.70408 6010 ft 222 kts 169°
2026-05-05 21:03 45.17742 8.70792 6003 ft 223 kts 176°
2026-05-05 21:03 45.16206 8.70596 6018 ft 221 kts 184°
2026-05-05 21:03 45.14712 8.71020 6005 ft 222 kts 149°
2026-05-05 21:04 45.13644 8.72563 5987 ft 224 kts 116°
2026-05-05 21:04 45.13326 8.74744 5746 ft 233 kts 84°
2026-05-05 21:04 45.13672 8.76975 5525 ft 232 kts 74°
2026-05-05 21:04 45.14119 8.79166 5269 ft 231 kts 73°
2026-05-05 21:05 45.14592 8.81336 5014 ft 231 kts 67°
2026-05-05 21:05 45.15544 8.83125 4738 ft 230 kts 34°
2026-05-05 21:05 45.17015 8.83904 4503 ft 227 kts
2026-05-05 21:05 45.18579 8.84128 4262 ft 226 kts
2026-05-05 21:06 45.20141 8.84300 4060 ft 223 kts
2026-05-05 21:06 45.21660 8.84466 4002 ft 217 kts
2026-05-05 21:06 45.23156 8.84636 4008 ft 215 kts 360°
2026-05-05 21:06 45.24644 8.84559 4002 ft 214 kts 354°
2026-05-05 21:07 45.26127 8.84325 4005 ft 215 kts 351°
2026-05-05 21:07 45.27620 8.84004 4014 ft 219 kts 351°
2026-05-05 21:07 45.29131 8.83729 4008 ft 219 kts 351°
2026-05-05 21:07 45.30638 8.83410 3998 ft 219 kts 349°
2026-05-05 21:08 45.32133 8.83037 3996 ft 218 kts 348°
2026-05-05 21:08 45.33619 8.82630 3996 ft 217 kts 347°
2026-05-05 21:08 45.35096 8.82201 3995 ft 217 kts 347°
2026-05-05 21:08 45.36569 8.81762 3996 ft 216 kts 347°
2026-05-05 21:09 45.38019 8.81323 3997 ft 215 kts 346°
2026-05-05 21:09 45.39500 8.80870 3999 ft 215 kts 346°
2026-05-05 21:09 45.40957 8.80424 3996 ft 212 kts 346°
2026-05-05 21:09 45.42354 8.79995 3999 ft 197 kts 346°
2026-05-05 21:10 45.43651 8.79595 3990 ft 187 kts 346°
2026-05-05 21:10 45.44897 8.79211 3971 ft 186 kts 346°
2026-05-05 21:10 45.46197 8.78808 3761 ft 191 kts 346°
2026-05-05 21:10 45.47471 8.78412 3520 ft 189 kts 346°
2026-05-05 21:11 45.48742 8.78015 3271 ft 186 kts 346°
2026-05-05 21:11 45.49995 8.77624 3025 ft 182 kts 346°
2026-05-05 21:11 45.51224 8.77239 2785 ft 179 kts 346°
2026-05-05 21:11 45.52429 8.76859 2559 ft 177 kts 346°
2026-05-05 21:12 45.53615 8.76479 2361 ft 167 kts 345°
2026-05-05 21:12 45.54698 8.76133 2130 ft 150 kts 345°
2026-05-05 21:12 45.55691 8.75809 1911 ft 143 kts 344°
2026-05-05 21:12 45.56646 8.75472 1725 ft 140 kts 339°
2026-05-05 21:13 45.57565 8.75016 1550 ft 139 kts 339°
2026-05-05 21:13 45.58490 8.74614 1366 ft 139 kts 342°
2026-05-05 21:13 45.59432 8.74318 1177 ft 139 kts 345°
2026-05-05 21:13 45.60384 8.74052 1028 ft 139 kts 346°
2026-05-05 21:14 45.61338 8.73804 857 ft 141 kts 347°
2026-05-05 21:14 45.62294 8.73537 747 ft 133 kts 353°
2026-05-05 21:14 45.62945 8.73366 743 ft 41 kts 349°
2026-05-05 21:14 45.63140 8.73247 744 ft 21 kts 324°
2026-05-05 21:15 45.63208 8.73164 748 ft 20 kts 314°
2026-05-05 21:15 45.63286 8.73017 751 ft 18 kts 304°
2026-05-05 21:15 45.63350 8.72879 751 ft 14 kts 305°
2026-05-05 21:15 45.63362 8.72856 751 ft 0 kts 305°
2026-05-05 21:16 45.63362 8.72854 751 ft 1 kts 305°
2026-05-05 21:16 45.63373 8.72832 751 ft 6 kts 304°
2026-05-05 21:16 45.63395 8.72759 751 ft 9 kts 276°
2026-05-05 21:16 45.63394 8.72707 751 ft 5 kts 269°
2026-05-05 21:17 45.63390 8.72666 751 ft 2 kts 269°
2026-05-05 21:17 45.63392 8.72646 751 ft 3 kts 277°
2026-05-05 21:17 45.63396 8.72591 751 ft 9 kts 273°
2026-05-05 21:17 45.63389 8.72492 751 ft 11 kts 257°
2026-05-05 21:18 45.63372 8.72376 750 ft 14 kts 260°
2026-05-05 21:18 45.63348 8.72217 746 ft 17 kts 256°
2026-05-05 21:18 45.63329 8.72059 749 ft 9 kts 259°
2026-05-05 21:18 45.63328 8.72054 749 ft 0 kts 259°
2026-05-05 21:19 45.63323 8.72017 750 ft 9 kts 259°
2026-05-05 21:20 45.63263 8.71973 751 ft 12 kts 173°
2026-05-05 21:20 45.63181 8.71995 750 ft 12 kts 168°
2026-05-05 21:20 45.63113 8.72014 751 ft 0 kts 168°
2026-05-05 21:21 45.63112 8.72014 751 ft 1 kts 168°
2026-05-05 21:21 45.63081 8.72023 751 ft 10 kts 169°
2026-05-05 21:22 45.63008 8.72016 751 ft 11 kts 221°
2026-05-05 21:22 45.62986 8.71911 751 ft 11 kts 259°
2026-05-05 21:22 45.62972 8.71805 751 ft 11 kts 258°
2026-05-05 21:22 45.62919 8.71756 751 ft 10 kts 172°
2026-05-05 21:23 45.62849 8.71775 751 ft 10 kts 169°
2026-05-05 21:23 45.62781 8.71793 752 ft 10 kts 169°
2026-05-05 21:23 45.62723 8.71809 752 ft 0 kts 168°
2026-05-05 21:24 45.62716 8.71811 752 ft 2 kts 168°
2026-05-05 21:24 45.62707 8.71814 752 ft 0 kts 168°
2026-05-05 21:25 45.62701 8.71815 752 ft 2 kts 168°
2026-05-05 21:26 45.62707 8.71814 752 ft 3 kts 168°
2026-05-05 21:26 45.62726 8.71808 752 ft 0 kts 168°
2026-05-05 21:26 45.62722 8.71812 752 ft 2 kts 148°
2026-05-05 21:27 45.62718 8.71848 752 ft 5 kts 89°
2026-05-05 21:27 45.62723 8.71896 751 ft 5 kts 79°